Skip Page Navigation
NASA JPL Caltech
NASA Logo - Jet Propulsion Laboratory + View the NASA Portal
+ Center for Near-Earth Object Studies
JPL Home Earth Solar System Stars & Galaxies Technology
JPL Solar System Dynamics
BODIES ORBITS EPHEMERIDES TOOLS PHYSICAL DATA DISCOVERY FAQ SITE MAP
JPL Small-Body Database Browser
Search: [ help ]  
277480 (2005 WC33)
Classification: Main-belt Asteroid          SPK-ID: 2277480
Ephemeris | Orbit Diagram | Orbital Elements | Mission Design | Physical Parameters | Discovery Circumstances ]

[ show orbit diagram ]
Orbital Elements at Epoch 2459000.5 (2020-May-31.0) TDB
Reference: JPL 12 (heliocentric ecliptic J2000)
 Element Value Uncertainty (1-sigma)   Units 
e .06938956859296125 8.6592e-08  
a 3.161698138287855 5.4978e-08 au
q 2.942309268450892 2.6441e-07 au
i 11.41153049339767 1.0421e-05 deg
node 54.30522154324095 3.0898e-05 deg
peri 310.5260101924184 6.4797e-05 deg
M 263.0583663075249 5.8498e-05 deg
tp 2459553.451277398184
(2021-Dec-04.95127740)
0.00033865 TDB
period 2053.425884020336
5.62
5.356e-05
1.466e-07
d
yr
n .175316773203992 4.5728e-09 deg/d
Q 3.381087008124818 5.8793e-08 au
  Orbit Determination Parameters
   # obs. used (total)      206  
   data-arc span      6286 days (17.21 yr)  
   first obs. used      2002-03-12  
   last obs. used      2019-05-28  
   planetary ephem.      DE431  
   SB-pert. ephem.      SB431-N16  
   condition code      0  
   norm. resid. RMS      .52653  
   source      ORB  
   producer      Otto Matic  
   solution date      2019-Sep-24 04:46:59  

Additional Information
 Earth MOID = 1.95766 au 
 Jupiter MOID = 2.00125 au 
 T_jup = 3.170 
[ show covariance matrix ]

Ephemeris | Orbit Diagram | Orbital Elements | Mission Design | Physical Parameters | Discovery Circumstances ]

Physical Parameter Table
Parameter Symbol Value Units Sigma Reference Notes
absolute magnitude H 15.6   n/a MPO437263  

277480 (2005 WC33)          Discovered 2005-Nov-21 by CSS at Catalina
Reference: 20110517/Numbers.arcLast Updated: 2011-05-20

Alternate Designations
 2005 WC33 = 2010 NO82 
Ephemeris | Orbit Diagram | Orbital Elements | Mission Design | Physical Parameters | Discovery Circumstances ]
ABOUT SSD CREDITS/AWARDS PRIVACY/COPYRIGHT GLOSSARY LINKS
FirstGov 2020-Aug-05 02:44 UT
(server date/time)  
NASA Home Page
Site Manager:   Ryan S. Park
Webmaster  Alan B. Chamberlin